Hourly Data Report for October 11, 2016

All times are specified in Local Standard Time (LST). Add 1 hour to adjust for Daylight Saving Time where and when it is observed.

KUGAARUK CLIMATE
NUNAVUT

68°32'15.060" N
89°47'47.020" W
15.80 m
2303094
71407
NBB

Download Data

Hourly Data (October 2016)
Hourly Data Report for October 11, 2016
Temp Definition
°C
Dew Point Temp Definition
°C
Rel Hum Definition
%
Wind Dir Definition
10's deg

Wind Spd Definition
km/h
Visibility Definition
km
Stn Press Definition
kPa
Hmdx Definition


Wind Chill Definition


Weather Definition


TIME
00:00 -7.1 -9.0 87 8 16   100.74   -13 LegendNANA
01:00 -8.3 -10.1 87 6 15   100.75   -15 LegendNANA
02:00 -9.8 -11.9 85 7 15   100.78   -16 LegendNANA
03:00 -13.1 -15.1 84 8 16   100.80   -21 LegendNANA
04:00 -13.9 -15.8 86 7 15   100.81   -22 LegendNANA
05:00 -15.6 -17.4 86 5 13   100.83   -23 LegendNANA
06:00 -16.0 -17.8 86 4 12   100.84   -23 LegendNANA
07:00 -17.0 -18.9 85 4 9   100.88   -23 LegendNANA
08:00 -17.2 -19.5 82 5 14   100.90   -25 LegendNANA
09:00 -16.7 -19.1 82 5 13   100.92   -24 LegendNANA
10:00 -15.6 -18.3 80 4 13   100.96   -23 LegendNANA
11:00 -14.9 -18.0 77 8 9   100.97   -21 LegendNANA
12:00 -14.8 -17.9 77 7 10   100.99   -21 LegendNANA
13:00 -13.8 -16.2 82 6 12   101.01   -21 LegendNANA
14:00 -13.9 -15.8 86 7 11   101.01   -20 LegendNANA
15:00 -14.5 -16.3 86 7 12   101.02   -21 LegendNANA
16:00 -15.8 -17.3 88 8 9   101.03   -22 LegendNANA
17:00 -16.1 -17.7 88 5 10   101.05   -23 LegendNANA
18:00 -15.8 -17.4 87 6 12   101.03   -23 LegendNANA
19:00 -15.7 -17.3 87 6 9   101.03   -22 LegendNANA
20:00 -16.2 -18.0 86 5 9   101.02   -22 LegendNANA
21:00 -16.2 -17.9 87 5 9   101.01   -22 LegendNANA
22:00 -15.0 -16.6 88 5 7   101.03   -20 LegendNANA
23:00 -14.5 -16.0 89 6 7   101.03   -19 LegendNANA

Notes on Data Quality.

Legend

  • E = Estimated
  • M = Missing
  • NA = Not Available
  • ‡ = Partner data that is not subject to review by the National Climate Archives
Date modified: